Location: Izdebno
(52.6670°N, 16.2170°E)
Time: 03:25:41
(UTC+02:00)

Transit 2A - Pass Details

Date: 02 March 2024
Orbit: 596 x 956 km, 66.7° (Epoch: 21 April)

Event Time Altitude Azimuth Distance (km) Brightness Sun altitude
Rises 22:30:21 0° 304° (NW) 2,879 9.7 -40.0°
Reaches altitude 10° 22:33:34 10° 330° (NNW) 2,013 8.9 -40.3°
Enters shadow 22:33:45 11° 332° (NNW) 1,979 8.8 -40.3°
Maximum altitude 22:36:04 14° 3° (N) 1,775 - -40.5°
Drops below altitude 10° 22:38:38 10° 37° (NE) 2,100 - -40.6°
Sets 22:42:07 0° 61° (ENE) 3,091 - -40.9°
